ATLAS 5 CENTAUR DEB, 43987

Orbit data source: Space-Track

ATLAS 5 CENTAUR DEB, 43987 is space debris in HEO originally from a launch on Wed, 17 Sep 2014 UTC launched from the Air Force Eastern Test Range (AFETR). Debris objects in space refer to the collection of defunct objects orbiting the Earth. Examples of debris include non-operational satellites, rocket bodies, and fragments generated from explosions, collisions, or faulty payload assembly.

Loading next visibility...
Identifier
43987, 2014-055AS
Orbit
HEO
Country
Flag of USUS
Related business
Flag of USUnited Launch Alliance/Lockheed Martin (US)
Manufacturer
Unknown
Mission
Spacecraft
Bus & Motor
Unknown
Mass
Unknown
Launch date (UTC)
2014-09-17 (12 years ago)
Launch vehicle
Unknown
Launch site
Air Force Eastern Test Range (AFETR)
Object type
Payload
Rocket body
Debris
Shape & HBR
Unknown shape, 1.1 m
Radar Cross Section
Medium (>0.1 m² and <1 m²)

Expand to show TLE details & history
Last TLE update: 3 weeks ago

TLE from 3 weeks ago
0 ATLAS 5 CENTAUR DEB
1 43987U 14055AS  26216.20808510 -.00000080  00000-0  00000-0 0  9996
2 43987  19.9999 140.8135 4843750 167.7228 210.4669  1.84025147 53283
Epoch: 2026-08-04T04:59Z
TLE epoch observation values (Epoch: 2026-08-04T04:59:38.552Z)
Latitude
0.00001°
Longitude
113.09341°
Altitude
34,519.986 km
Speed
2.307 km/s
True Right ascension
09h 23m 08s
True Declination
0° 00' 00"
Sunlit
Object was in daylight at epoch
Visualization orbit readout
Latitude
Unknown
Longitude
Unknown
Altitude
Unknown
Speed
Unknown
Apparent Right ascension
Unknown
Apparent Declination
Unknown
Sunlit
N/A
Visualization observer readout
Local Sidereal Time
15:53:05
Azimuth
Unknown
Elevation
Unknown
Doppler factor
Unknown
Orbital elements
Apogee altitude
35,378.36 km
Perigee altitude
8,126.751 km
Semi-major axis
28,130.693 km
Eccentricity
0.48438
Inclination
19.9999°
RAAN
140.8135°
Arg. of periapsis
167.7228°
True anomaly
192.26951°
Mean anomaly
210.4669°
Eccentric anomaly
200.67044°
Mean motion
0.46002 °/min
Orbital period
782.58 mins
BSTAR
0
Loading maneuver chart data...
Computing Atmospheric mass density...

Documentation

Showing up to 5 results
|